STARLINK-37254, 68553

Orbit data source: Space-Track

STARLINK-37254, 68553 is a payload satellite owned by SpaceX/Seattle (US) in LEO that was launched on Thu, 02 Apr 2026 UTC via an FALCON 9 launch vehicle from the Air Force Eastern Test Range (AFETR). Payload-class satellites include a variety of spacecraft equipped with specific instruments for various scientific and technological missions. These include communications satellites like Starlink; space stations such as the ISS; scientific satellites like the Hubble; Earth observation satellites from companies like Planet Labs, Umbra, and HawkEye 360; GPS; miniature CubeSats for education and research; and military/defense satellites.

Loading next visibility...
Identifier
68553, 2026-070M
Orbit
LEO
Country
Flag of USUS
Related business
Manufacturer
SpaceX/Seattle
Mission
Operational Commercial Communications
Bus & Motor
STARLINK V2MO, Unknown motor
Mass
575 kg wet, ~530 kg dry
Launch date (UTC)
2026-04-02 (5 months ago)
Launch vehicle
FALCON 9
Launch site
Air Force Eastern Test Range (AFETR)
Object type
Payload
Rocket body
Debris
Shape & HBR
Box + 1 Pan, 17.7 m
Radar Cross Section
41.120 m², Large (>1 m²)

Expand to show TLE details & history
Last TLE update: 1 day ago

TLE from 1 day ago
0 STARLINK-37254
1 68553U 26070M   26246.40659627  .00010351  00000-0  31707-3 0  9992
2 68553  53.1598 253.5873 0002298  57.4860 302.6364 15.34399456 23811
Epoch: 2026-09-03T09:45Z
TLE epoch observation values (Epoch: 2026-09-03T09:45:29.917Z)
Latitude
-0.00007°
Longitude
124.66737°
Altitude
462.759 km
Speed
7.637 km/s
True Right ascension
16h 54m 20s
True Declination
0° 00' 00"
Sunlit
Object was in daylight at epoch
Visualization orbit readout
Latitude
Unknown
Longitude
Unknown
Altitude
Unknown
Speed
Unknown
Apparent Right ascension
Unknown
Apparent Declination
Unknown
Sunlit
N/A
Visualization observer readout
Local Sidereal Time
02:03:43
Azimuth
Unknown
Elevation
Unknown
Doppler factor
Unknown
Orbital elements
Apogee altitude
464.534 km
Perigee altitude
461.39 km
Semi-major axis
6,841.099 km
Eccentricity
0.00023
Inclination
53.1598°
RAAN
253.5873°
Arg. of periapsis
57.486°
True anomaly
302.61422°
Mean anomaly
302.6364°
Eccentric anomaly
302.62531°
Mean motion
3.83579 °/min
Orbital period
93.85 mins
BSTAR
0.00031707
Loading maneuver chart data...
Computing Atmospheric mass density...
Loading historical data...
Loading historical data...
Loading historical data...
Loading historical data...
Loading historical data...
Loading historical data...
Loading historical data...

Documentation

Showing up to 5 results
|